Flag for Canada Weather past 2 weeks in Corner Brook, Newfoundland and Labrador, Canada

Now
0 °F

Scattered clouds.


Feels Like: -10 °F
Forecast: -3 / 7 °F
Wind: 5 mph from West

Location: Deer Lake

Current Time: Mar 6, 2015 at 8:26:31 AM

Latest Report: Mar 6, 2015 at 7:30 AM


Visibility: 15 mi

Pressure: 29.98 "Hg

Humidity: 71%

Dew point: -8 °F

Location of Corner BrookLocation

Historic Weather in Corner Brook — Graph

°F

Corner Brook temperature yesterday

Maximum temperature yesterday: 23 °F (at 9:30 AM)
Minimum temperature yesterday: 9 °F (at 10:30 PM)
Average temperature yesterday: 16 °F

Past Weeks' High & Low Weather Summary

 TemperatureHumidityPressure
High36 °F (Feb 20, 12:30 PM)100% (Feb 20, 7:21 AM)30.41 "Hg (Feb 20, 7:21 AM)
Low-11 °F (Feb 25, 6:30 AM)41% (Feb 20, 12:30 PM)28.98 "Hg (Mar 3, 1:30 AM)
Average16 °F79%29.84 "Hg
* Reported Feb 19 6:30 AM — Mar 6 6:30 AM, Corner Brook, Weather by CustomWeather, © 2015

Note: Actual official high and low records may vary slightly from our data, if they occured in-between our weather recording intervals... More about our weather records

Advertising

Corner Brook weather history for previous 24 hours

 ConditionsComfort  
Time TempWeatherWind HumidityBarometerVisibility
6:30 AM
Fri, Mar 6
0 °FPartly sunny.9 mph71%29.94 "Hg15 mi
5:30 AM1 °FPartly cloudy.9 mph71%29.90 "Hg15 mi
4:30 AM3 °FPassing clouds.13 mph66%29.88 "Hg15 mi
3:30 AM5 °FSnow flurries. Partly cloudy.12 mph60%29.85 "Hg15 mi
2:30 AM3 °FSnow flurries. Passing clouds.5 mph78%29.85 "Hg15 mi
1:30 AM7 °FSnow flurries. Passing clouds.12 mph72%29.82 "Hg10 mi
12:30 AM7 °FSnow flurries. Passing clouds.9 mph66%29.78 "Hg15 mi
11:30 PM
Thu, Mar 5
9 °FSnow flurries. Passing clouds.14 mph78%29.75 "Hg6 mi
11:19 PM10 °FSnow flurries. Mostly cloudy.9 mph72%29.74 "Hg6 mi
10:30 PM9 °FPassing clouds.7 mph66%29.72 "Hg15 mi
10:19 PM10 °FPassing clouds.10 mph61%29.70 "Hg15 mi
9:30 PM10 °FSnow flurries. Passing clouds.12 mph67%29.70 "Hg10 mi
9:18 PM10 °FSnow flurries. Passing clouds.10 mph72%29.69 "Hg6 mi
8:30 PM12 °FSnow flurries. Passing clouds.9 mph73%29.69 "Hg10 mi
7:30 PM10 °FSnow flurries. Passing clouds.14 mph72%29.64 "Hg6 mi
6:30 PM12 °FSnow flurries. Partly cloudy.20 mph73%29.62 "Hg6 mi
5:30 PM14 °FSnow flurries. Scattered clouds.14 mph67%29.60 "Hg6 mi
4:30 PM16 °FSnow flurries. Partly sunny.23 mph62%29.55 "Hg6 mi
3:30 PM16 °FSnow flurries. Partly sunny.18 mph67%29.55 "Hg4 mi
2:30 PM18 °FSnow flurries. Partly sunny.29 mph68%29.54 "Hg4 mi
1:30 PM21 °FSnow flurries. Partly sunny.17 mph63%29.52 "Hg4 mi
12:30 PM19 °FSnow flurries. Partly sunny.22 mph68%29.53 "Hg3 mi
11:30 AM23 °FSnow flurries. Broken clouds.15 mph68%29.49 "Hg4 mi
10:30 AM21 °FSnow flurries. More clouds than sun.12 mph80%29.46 "Hg3 mi
9:30 AM23 °FSnow flurries. More clouds than sun.15 mph80%29.46 "Hg3 mi
8:30 AM21 °FSnow flurries. More clouds than sun.12 mph93%29.45 "Hg2 mi
Weather by CustomWeather, © 2015

See weather overviewHow to use our weather pages